Starlink 5697

operational
NORAD ID: 55589 Int'l Des: 2023-020 Owner: SPXS Country: US Constellation: starlink
LEOCIRCULAR

Starlink 5697について

説明を読み込み中...

リアルタイム位置

3D地球を読み込み中...

次回通過

高度履歴

Altitude vs Time

uPlot chart will show altitude changes over time

軌道要素

1 55589U 23020W 26035.66947697 .00000076 00000-0 20716-4 0 9992
2 55589 43.0027 183.9399 0001361 270.3352 89.7334 15.02536106163952
Epoch: Feb 4, 2026 • Age: 10 hours

現在のステータス

高度 558.5 km
速度 7.58 km/s
衛星直下点 3.27°N, 25.11°E
打ち上げ日 Feb 12, 2023
運用期間 2.9 years
タイプ internet

技術仕様

分類 Payload
質量 305.00 kg
乾燥質量 290.00 kg
総質量 305.00 kg
長さ 0.20 m
直径 2.80 m
スパン 9.00 m
形状 Box + pan
製造者 SPXS
バスタイプ Starlink
フェーズステータス In Orbit
所有者/国 SPXS/US

大規模コンステレーション

Loading constellations...